• In Portugal
  • List of Countries
  • For 7 days
  • Water Temperature
  • Satellite Maps
  • Weather Map
  • Weather Widgets
  • user-avatar
    Login

    Hourly Weather Mardin

    Today, 21 September, Friday

    Time Temperature Precipitation Wind Pressure Humidity
    00:00 +28°C° 0 mm 1 mps 692 mmHg 17%
    01:00 +27°C° 0 mm 1 mps 692 mmHg 18%
    02:00 +27°C° 0 mm 1 mps 692 mmHg 19%
    03:00 +26°C° 0 mm 1 mps 692 mmHg 20%
    04:00 +26°C° 0 mm 1 mps 692 mmHg 20%
    05:00 +25°C° 0 mm 1 mps 692 mmHg 21%
    06:00 +25°C° 0 mm 1 mps 693 mmHg 21%
    07:00 +27°C° 0 mm 1 mps 693 mmHg 19%
    08:00 +29°C° 0 mm 1 mps 694 mmHg 17%
    09:00 +31°C° 0 mm 1 mps 695 mmHg 16%
    10:00 +32°C° 0 mm 1 mps 695 mmHg 15%
    11:00 +35°C° 0 mm 2 mps 695 mmHg 15%
    12:00 +36°C° 0 mm 3 mps 695 mmHg 14%
    13:00 +36°C° 0 mm 3 mps 695 mmHg 14%
    14:00 +36°C° 0 mm 3 mps 694 mmHg 13%
    15:00 +36°C° 0 mm 2 mps 694 mmHg 14%
    16:00 +35°C° 0 mm 2 mps 694 mmHg 14%
    17:00 +35°C° 0 mm 2 mps 694 mmHg 15%
    18:00 +33°C° 0 mm 1 mps 694 mmHg 15%
    19:00 +32°C° 0 mm 1 mps 694 mmHg 16%
    20:00 +31°C° 0 mm 1 mps 694 mmHg 18%
    21:00 +28°C° 0 mm 0 mps 694 mmHg 19%
    22:00 +29°C° 0 mm 1 mps 694 mmHg 19%
    23:00 +29°C° 0 mm 1 mps 693 mmHg 20%

    Tomorrow, 22 September, Saturday

    Time Temperature Precipitation Wind Pressure Humidity
    00:00 +28°C° 0 mm 1 mps 693 mmHg 21%
    01:00 +27°C° 0 mm 1 mps 693 mmHg 21%
    02:00 +27°C° 0 mm 1 mps 693 mmHg 22%
    03:00 +26°C° 0 mm 2 mps 693 mmHg 23%
    04:00 +26°C° 0 mm 2 mps 693 mmHg 23%
    05:00 +25°C° 0 mm 2 mps 693 mmHg 24%
    06:00 +25°C° 0 mm 2 mps 693 mmHg 24%
    07:00 +27°C° 0 mm 2 mps 693 mmHg 22%
    08:00 +28°C° 0 mm 2 mps 694 mmHg 20%
    09:00 +30°C° 0 mm 2 mps 694 mmHg 18%
    10:00 +31°C° 0 mm 2 mps 694 mmHg 17%
    11:00 +32°C° 0 mm 2 mps 694 mmHg 15%
    12:00 +35°C° 0 mm 2 mps 694 mmHg 14%
    13:00 +35°C° 0 mm 2 mps 694 mmHg 13%
    14:00 +36°C° 0 mm 2 mps 694 mmHg 12%
    15:00 +36°C° 0 mm 2 mps 693 mmHg 12%
    16:00 +35°C° 0 mm 2 mps 693 mmHg 12%
    17:00 +35°C° 0 mm 2 mps 693 mmHg 13%
    18:00 +34°C° 0 mm 2 mps 693 mmHg 13%
    19:00 +32°C° 0 mm 2 mps 693 mmHg 14%
    20:00 +31°C° 0 mm 2 mps 693 mmHg 15%
    21:00 +29°C° 0 mm 2 mps 693 mmHg 16%
    22:00 +29°C° 0 mm 2 mps 693 mmHg 17%
    23:00 +28°C° 0 mm 2 mps 693 mmHg 19%

    Day after tomorrow, 23 September, Sunday

    Time Temperature Precipitation Wind Pressure Humidity
    00:00 +28°C° 0 mm 2 mps 693 mmHg 20%
    01:00 +27°C° 0 mm 2 mps 693 mmHg 21%
    02:00 +26°C° 0 mm 2 mps 693 mmHg 22%
    03:00 +26°C° 0 mm 2 mps 693 mmHg 23%
    04:00 +25°C° 0 mm 2 mps 693 mmHg 23%
    05:00 +25°C° 0 mm 2 mps 693 mmHg 24%
    06:00 +24°C° 0 mm 2 mps 693 mmHg 24%
    07:00 +26°C° 0 mm 2 mps 693 mmHg 22%
    08:00 +28°C° 0 mm 2 mps 694 mmHg 20%
    09:00 +29°C° 0 mm 2 mps 695 mmHg 17%
    10:00 +31°C° 0 mm 2 mps 695 mmHg 16%
    11:00 +32°C° 0 mm 2 mps 695 mmHg 14%
    12:00 +34°C° 0 mm 3 mps 695 mmHg 13%
    13:00 +35°C° 0 mm 3 mps 695 mmHg 12%
    14:00 +35°C° 0 mm 3 mps 694 mmHg 11%
    15:00 +36°C° 0 mm 4 mps 694 mmHg 10%
    16:00 +35°C° 0 mm 4 mps 694 mmHg 10%
    17:00 +34°C° 0 mm 3 mps 694 mmHg 11%
    18:00 +33°C° 0 mm 3 mps 693 mmHg 11%
    19:00 +31°C° 0 mm 3 mps 694 mmHg 12%
    20:00 +30°C° 0 mm 3 mps 694 mmHg 13%
    21:00 +28°C° 0 mm 3 mps 694 mmHg 14%
    22:00 +28°C° 0 mm 3 mps 694 mmHg 15%
    23:00 +27°C° 0 mm 3 mps 694 mmHg 16%

    24 September, Monday

    Time Temperature Precipitation Wind Pressure Humidity
    00:00 +26°C° 0 mm 3 mps 694 mmHg 16%
    01:00 +26°C° 0 mm 3 mps 694 mmHg 18%
    02:00 +25°C° 0 mm 3 mps 694 mmHg 19%
    03:00 +24°C° 0 mm 3 mps 694 mmHg 21%
    04:00 +24°C° 0 mm 3 mps 694 mmHg 23%
    05:00 +22°C° 0 mm 3 mps 694 mmHg 25%
    06:00 +22°C° 0 mm 3 mps 694 mmHg 28%
    07:00 +23°C° 0 mm 4 mps 694 mmHg 26%
    08:00 +26°C° 0 mm 4 mps 695 mmHg 24%
    09:00 +27°C° 0 mm 4 mps 695 mmHg 22%
    10:00 +29°C° 0 mm 4 mps 695 mmHg 20%
    11:00 +30°C° 0 mm 4 mps 695 mmHg 18%
    12:00 +33°C° 0 mm 3 mps 695 mmHg 15%
    13:00 +34°C° 0 mm 3 mps 695 mmHg 14%
    14:00 +34°C° 0 mm 3 mps 695 mmHg 12%
    15:00 +35°C° 0 mm 3 mps 694 mmHg 11%
    16:00 +34°C° 0 mm 2 mps 694 mmHg 11%
    17:00 +32°C° 0 mm 2 mps 694 mmHg 12%
    18:00 +31°C° 0 mm 2 mps 693 mmHg 12%
    19:00 +30°C° 0 mm 2 mps 694 mmHg 13%
    20:00 +29°C° 0 mm 2 mps 694 mmHg 14%
    21:00 +28°C° 0 mm 2 mps 694 mmHg 15%
    22:00 +27°C° 0 mm 2 mps 694 mmHg 15%
    23:00 +27°C° 0 mm 2 mps 694 mmHg 16%

    25 September, Tuesday

    Time Temperature Precipitation Wind Pressure Humidity
    00:00 +26°C° 0 mm 2 mps 693 mmHg 17%
    01:00 +26°C° 0 mm 1 mps 693 mmHg 17%
    02:00 +25°C° 0 mm 1 mps 693 mmHg 18%
    03:00 +25°C° 0 mm 1 mps 693 mmHg 19%
    04:00 +24°C° 0 mm 1 mps 693 mmHg 19%
    05:00 +24°C° 0 mm 1 mps 693 mmHg 20%
    06:00 +23°C° 0 mm 1 mps 693 mmHg 20%
    07:00 +25°C° 0 mm 1 mps 693 mmHg 18%
    08:00 +27°C° 0 mm 1 mps 694 mmHg 17%
    09:00 +29°C° 0 mm 1 mps 694 mmHg 15%
    10:00 +30°C° 0 mm 1 mps 694 mmHg 13%
    11:00 +32°C° 0 mm 1 mps 694 mmHg 12%
    12:00 +33°C° 0 mm 1 mps 694 mmHg 11%
    13:00 +34°C° 0 mm 1 mps 694 mmHg 11%
    14:00 +35°C° 0 mm 2 mps 693 mmHg 10%
    15:00 +36°C° 0 mm 2 mps 693 mmHg 10%
    16:00 +35°C° 0 mm 2 mps 693 mmHg 11%
    17:00 +34°C° 0 mm 2 mps 692 mmHg 11%
    18:00 +32°C° 0 mm 1 mps 692 mmHg 12%
    19:00 +31°C° 0 mm 1 mps 692 mmHg 13%
    20:00 +30°C° 0 mm 1 mps 692 mmHg 14%
    21:00 +29°C° 0 mm 1 mps 692 mmHg 15%
    22:00 +28°C° 0 mm 1 mps 692 mmHg 16%
    23:00 +27°C° 0 mm 1 mps 692 mmHg 17%

    26 September, Wednesday

    Time Temperature Precipitation Wind Pressure Humidity
    00:00 +27°C° 0 mm 1 mps 692 mmHg 17%
    01:00 +26°C° 0 mm 1 mps 691 mmHg 18%
    02:00 +26°C° 0 mm 1 mps 691 mmHg 19%
    03:00 +25°C° 0 mm 1 mps 691 mmHg 20%
    04:00 +25°C° 0 mm 1 mps 691 mmHg 20%
    05:00 +22°C° 0 mm 0 mps 691 mmHg 21%
    06:00 +22°C° 0 mm 0 mps 692 mmHg 21%
    07:00 +26°C° 0 mm 1 mps 692 mmHg 19%
    08:00 +27°C° 0 mm 1 mps 692 mmHg 17%
    09:00 +29°C° 0 mm 1 mps 693 mmHg 15%
    10:00 +31°C° 0 mm 2 mps 693 mmHg 14%
    11:00 +32°C° 0 mm 2 mps 693 mmHg 13%
    12:00 +34°C° 0 mm 3 mps 693 mmHg 12%
    13:00 +35°C° 0 mm 4 mps 692 mmHg 12%
    14:00 +35°C° 0 mm 4 mps 692 mmHg 12%
    15:00 +36°C° 0 mm 4 mps 692 mmHg 11%
    16:00 +35°C° 0 mm 4 mps 692 mmHg 13%
    17:00 +34°C° 0 mm 3 mps 691 mmHg 14%
    18:00 +33°C° 0 mm 3 mps 691 mmHg 15%
    19:00 +31°C° 0 mm 2 mps 691 mmHg 16%
    20:00 +30°C° 0 mm 2 mps 691 mmHg 17%
    21:00 +29°C° 0 mm 2 mps 692 mmHg 18%
    22:00 +28°C° 0 mm 2 mps 691 mmHg 19%
    23:00 +27°C° 0 mm 2 mps 691 mmHg 21%
    Show more